Regional Weather Roundup
Issued by NWS

Home | Current Version | Previous Version | Graphics & Text | Print | Product List | Glossary On
Versions: 1 2 3 4 5 6 7 8 9 10 11 12 13 14 15 16 17 18 19 20 21 22 23 24 25 26 27
000
ASUS45 KCYS 241310
RWRWY

WYOMING REGIONAL WEATHER ROUNDUP
NATIONAL WEATHER SERVICE CHEYENNE WY
700 AM MDT WED MAY 24 2017

NOTE:  "FAIR" INDICATES FEW OR NO CLOUDS BELOW 12,000 FEET
WITH NO SIGNIFICANT WEATHER AND/OR OBSTRUCTIONS TO VISIBILITY.

WYZ001-241400-
YELLOWSTONE NATIONAL PARK

CITY           SKY/WX    TMP DP  RH WIND       PRES   REMARKS
LK YELLOWSTONE   N/A     34  33  96 CALM      29.92F
W YELLOWSTONE  NOT AVBL

$$
WYZ002>013-054>058-071-098>099-241400-
NORTHERN WYOMING

CITY           SKY/WX    TMP DP  RH WIND       PRES   REMARKS
JACKSON        SUNNY     36  34  93 N3        29.91S
CODY           FAIR      64  36  35 SW18      29.69F
GREYBULL       FAIR      46  34  62 E5        29.67F
WORLAND        FAIR      46  39  76 S6        29.67F
SHERIDAN       FAIR      49  42  77 CALM      29.60F
BUFFALO        FAIR      60  40  47 SW5       29.66F
GILLETTE       FAIR      47  38  71 S18G25    29.66F
HULETT         FAIR      55  32  41 SW8       29.68F
NEWCASTLE      FAIR      48  32  53 E14G23    29.75F

$$
WYZ014>020-022>026-101>103-241400-
CENTRAL WYOMING

CITY           SKY/WX    TMP DP  RH WIND       PRES   REMARKS
BIG PINEY      FAIR      38  33  82 CALM      29.96F
PINEDALE       FAIR      34  32  93 NW5       29.97S WCI  30
DUBOIS         FAIR      43  28  56 NW17G23   29.89
LANDER         FAIR      49  36  61 CALM      29.77F
RIVERTON       FAIR      50  37  61 SW9       29.77F
CASPER         FAIR      53  38  56 SW17      29.78F
DOUGLAS        FAIR      43  36  76 CALM      29.75F

$$
WYZ021-027>030-104>119-241400-
SOUTHERN WYOMING

CITY           SKY/WX    TMP DP  RH WIND       PRES   REMARKS
EVANSTON       FAIR      46  32  58 SW14      30.00F
ROCK SPRINGS   FAIR      53  31  42 SW18      29.94F
DIXON            N/A     36  33  87 CALM      30.02
RAWLINS        FAIR      52  33  48 W23G30    29.91S
SARATOGA       FAIR      45  32  61 SE10      29.97F
LARAMIE        FAIR      49  34  56 SW9G17    29.91F
CHEYENNE       FAIR      50  35  56 SW9       29.84F
TORRINGTON     FAIR      41  37  86 E9        29.76F
PINE BLUFFS    FAIR      37  36  93 SW6       29.84F WCI  33

$$




USA.gov is the U.S. government's official web portal to all federal, state and local government web resources and services.